Newport, AR

3:10 PM CDT on March 29, 2017 (GMT -0500)
Newport

Weather History for KM19 - January, 2013

Change the Weather History Date:

Saturday, January 26, 2013

  Actual Average (KBVX) Record (KBVX)
Temperature  
Mean Temperature 40 °F -  
Max Temperature 50 °F 48 °F 78 °F (1952)
Min Temperature 31 °F 26 °F 11 °F (1978)
Degree Days  
Heating Degree Days 24    
Moisture  
Dew Point 33 °F    
Average Humidity 74    
Maximum Humidity 92    
Minimum Humidity 47    
Precipitation  
Precipitation 0.00 in - - ()
Sea Level Pressure  
Sea Level Pressure 30.31 in    
Wind  
Wind Speed 7 mph (NE)    
Max Wind Speed 14 mph    
Max Gust Speed 55 mph    
Visibility 10 miles    
Events      
Averages and records for this station are not official NWS values.
T = Trace of Precipitation, MM = Missing Value Source: NWS Daily Summary

Daily Weather History Graph

Daily Weather History Graph

Search for Another Location

Airport or City:

Trip Planner

Search our weather history database for the weather conditions in past years. The results will help you decide how hot, cold, wet, or windy it might be!

Date:

Astronomy

Jan. 26, 2013 Rise Set
Actual Time 7:08 AM CST 5:26 PM CST
Civil Twilight 6:41 AM CST 5:53 PM CST
Nautical Twilight 6:10 AM CST 6:24 PM CST
Astronomical Twilight 5:40 AM CST 6:54 PM CST
Moon 5:19 PM CST (1/26) 6:27 AM CST (1/26)
Length of Visible Light 11h 12m
Length of Day
10h 17m
Full, 100% of the Moon is Illuminated
Jan 26
Full
Jan 26
Full
Feb 3
Last Quarter
Feb 10
New
Feb 17
First Quarter

Hourly Weather History & Observations

Time (CST) Temp. Windchill Dew Point Humidity Pressure Visibility Wind Dir Wind Speed Gust Speed Precip Events Conditions
12:56 AM 38.8 °F 35.4 °F 32.9 °F 79% 30.28 in 10.0 mi NW 4.6 mph - N/A   Clear
1:56 AM 34.9 °F 26.6 °F 32.0 °F 89% 30.28 in 10.0 mi NNW 11.5 mph - N/A   Clear
2:56 AM 34.0 °F 27.2 °F 31.1 °F 89% 30.29 in 10.0 mi NNW 8.1 mph - N/A   Clear
3:56 AM 32.9 °F 26.7 °F 30.0 °F 89% 30.29 in 10.0 mi North 6.9 mph - N/A   Clear
4:56 AM 32.0 °F 25.6 °F 29.1 °F 89% 30.30 in 10.0 mi North 6.9 mph - N/A   Clear
5:56 AM 32.0 °F 26.4 °F 29.1 °F 89% 30.31 in 10.0 mi North 5.8 mph - N/A   Clear
6:56 AM 31.1 °F 24.5 °F 29.1 °F 92% 30.33 in 10.0 mi North 6.9 mph - N/A   Clear
7:56 AM 32.9 °F 27.5 °F 29.1 °F 86% 30.33 in 10.0 mi NNE 5.8 mph - N/A   Clear
8:56 AM 36.9 °F - 32.0 °F 83% 30.36 in 10.0 mi Calm Calm - N/A   Clear
9:56 AM 41.9 °F 38.2 °F 32.9 °F 70% 30.38 in 10.0 mi Variable 5.8 mph - N/A   Clear
10:56 AM 45.0 °F 41.2 °F 34.0 °F 65% 30.36 in 10.0 mi NE 6.9 mph - N/A   Clear
11:56 AM 48.9 °F - 31.1 °F 50% 30.35 in 10.0 mi SE 13.8 mph 55.2 mph N/A   Clear
12:56 PM 50.0 °F - 31.1 °F 48% 30.33 in 10.0 mi SE 5.8 mph - N/A   Clear
1:09 PM 50.0 °F - 30.2 °F 47% 30.32 in 10.0 mi North - - N/A   Squalls
1:56 PM 48.9 °F - 32.9 °F 54% 30.31 in 10.0 mi ENE 6.9 mph 39.1 mph N/A   Overcast
2:56 PM 48.9 °F - 32.9 °F 54% 30.30 in 10.0 mi ENE 8.1 mph 16.1 mph N/A   Overcast
3:56 PM 47.8 °F - 34.9 °F 61% 30.30 in 10.0 mi East 13.8 mph 35.7 mph N/A   Overcast
4:56 PM 46.9 °F - 37.9 °F 71% 30.28 in 10.0 mi East 8.1 mph - N/A   Overcast
5:56 PM 45.0 °F 41.2 °F 36.9 °F 73% 30.29 in 10.0 mi ENE 6.9 mph - N/A   Overcast
6:56 PM 43.9 °F 39.9 °F 36.9 °F 76% 30.30 in 10.0 mi East 6.9 mph - N/A   Overcast
7:56 PM 43.9 °F 39.9 °F 36.9 °F 76% 30.30 in 10.0 mi ENE 6.9 mph - N/A   Overcast
8:56 PM 43.0 °F 38.8 °F 36.0 °F 76% 30.30 in 10.0 mi East 6.9 mph - N/A   Mostly Cloudy
9:56 PM 43.0 °F 38.8 °F 36.0 °F 76% 30.30 in 10.0 mi ENE 6.9 mph - N/A   Overcast
10:56 PM 43.0 °F 40.3 °F 36.9 °F 79% 30.29 in 10.0 mi East 4.6 mph - N/A   Overcast
11:56 PM 43.0 °F 37.2 °F 36.9 °F 79% 30.28 in 10.0 mi East 10.4 mph - N/A   Overcast